Total_Precipitation_Accumulation
0.00 0.00 0.00 0.00 0.00 0.00 0.00 0.00 0.00 0.00 0.00 0.00 0.00 0.00 0.00 0.00 0.00 0.00 0.00 0.00 0.00 0.00 0.00 0.00 0.00 0.00 0.00 0.00 0.00 0.00 0.01 0.01 0.00 0.00 0.01 0.01 0.01 0.01 0.01 0.01 0.02 0.01 0.02 0.02 0.00 0.00 0.01 0.01 0.01 0.00 0.01 0.01 0.01 0.02 0.01 0.01 0.01 0.02 0.04 0.08 0.13 0.16 0.23 0.22 0.26 0.13 0.05 0.01 0.01 0.00 0.01 0.01 0.09 0.14 0.22 0.22 0.25 0.28 0.16 0.43 0.40 0.44 0.14 0.20 0.28
0.00 0.00 0.00 0.00 0.00 0.00 0.00 0.00 0.00 0.00 0.00 0.00 0.00 0.00 0.00 0.00 0.00 0.00 0.00 0.00 0.00 0.00 0.00 0.00 0.00 0.00 0.00 0.00 0.00 0.01 0.02 0.02 0.03 0.01 0.01 0.01 0.02 0.01 0.02 0.01 0.01 0.01 0.01 0.01 0.00 0.00 0.00 0.00 0.01 0.01 0.01 0.01 0.02 0.02 0.02 0.04 0.07 0.05 0.10 0.09 0.20 0.28 0.29 0.51 0.16 0.14 0.05 0.02 0.02 0.02 0.01 0.00 0.01 0.01 0.19 0.06 0.06 0.36 0.36 0.14 0.24 0.39 0.30 0.25 0.29
0.00 0.00 0.00 0.00 0.00 0.00 0.00 0.00 0.00 0.00 0.00 0.00 0.00 0.00 0.00 0.00 0.00 0.00 0.00 0.00 0.00 0.00 0.00 0.00 0.00 0.00 0.00 0.00 0.01 0.01 0.01 0.06 0.05 0.01 0.02 0.01 0.01 0.02 0.02 0.03 0.01 0.01 0.02 0.01 0.01 0.00 0.00 0.00 0.01 0.01 0.01 0.01 0.03 0.02 0.02 0.03 0.03 0.06 0.05 0.05 0.10 0.07 0.12 0.18 0.26 0.13 0.06 0.02 0.01 0.02 0.02 0.01 0.01 0.01 0.01 0.02 0.08 0.05 0.11 0.16 0.32 0.14 0.19 0.13 0.17
0.00 0.00 0.00 0.00 0.00 0.00 0.00 0.00 0.00 0.00 0.00 0.00 0.00 0.00 0.00 0.00 0.00 0.00 0.00 0.00 0.00 0.00 0.00 0.00 0.00 0.00 0.00 0.00 0.01 0.01 0.01 0.05 0.03 0.04 0.01 0.01 0.03 0.03 0.03 0.03 0.02 0.02 0.03 0.01 0.00 0.00 0.01 0.01 0.01 0.01 0.01 0.02 0.03 0.03 0.06 0.07 0.06 0.04 0.07 0.05 0.10 0.05 0.05 0.07 0.20 0.27 0.13 0.07 0.01 0.01 0.01 0.01 0.01 0.01 0.01 0.00 0.01 0.01 0.04 0.13 0.22 0.35 0.33 0.17 0.08
0.00 0.00 0.00 0.00 0.00 0.00 0.00 0.00 0.00 0.00 0.00 0.00 0.00 0.00 0.00 0.00 0.00 0.00 0.00 0.00 0.00 0.00 0.00 0.00 0.00 0.00 0.01 0.01 0.04 0.02 0.03 0.02 0.01 0.02 0.02 0.02 0.01 0.03 0.02 0.04 0.02 0.03 0.01 0.00 0.00 0.01 0.01 0.02 0.01 0.00 0.00 0.02 0.02 0.03 0.11 0.17 0.23 0.16 0.14 0.15 0.22 0.09 0.15 0.25 0.15 0.22 0.13 0.11 0.04 0.02 0.01 0.02 0.01 0.01 0.01 0.03 0.01 0.01 0.02 0.11 0.04 0.08 0.17 0.13 0.07
0.00 0.00 0.00 0.00 0.00 0.00 0.00 0.00 0.00 0.00 0.00 0.00 0.00 0.00 0.00 0.00 0.00 0.00 0.00 0.00 0.00 0.00 0.00 0.00 0.00 0.01 0.00 0.03 0.04 0.03 0.02 0.08 0.08 0.07 0.04 0.03 0.01 0.02 0.01 0.03 0.03 0.03 0.01 0.00 0.00 0.01 0.02 0.02 0.00 0.01 0.01 0.03 0.03 0.04 0.19 0.32 0.17 0.09 0.20 0.12 0.11 0.17 0.26 0.18 0.14 0.39 0.23 0.11 0.15 0.10 0.02 0.03 0.02 0.02 0.02 0.02 0.03 0.03 0.06 0.16 0.10 0.09 0.11 0.16 0.08
0.00 0.00 0.00 0.00 0.00 0.00 0.00 0.00 0.00 0.00 0.00 0.00 0.00 0.00 0.00 0.00 0.00 0.00 0.00 0.00 0.00 0.00 0.00 0.00 0.00 0.00 0.01 0.03 0.02 0.03 0.04 0.12 0.20 0.10 0.07 0.07 0.04 0.03 0.01 0.02 0.04 0.03 0.01 0.00 0.01 0.01 0.01 0.00 0.01 0.01 0.01 0.03 0.05 0.07 0.11 0.17 0.13 0.14 0.10 0.18 0.05 0.04 0.06 0.06 0.15 0.25 0.19 0.16 0.16 0.08 0.04 0.03 0.03 0.03 0.02 0.02 0.01 0.04 0.07 0.13 0.52 0.22 0.14 0.08 0.16
0.00 0.00 0.00 0.00 0.00 0.00 0.00 0.00 0.00 0.00 0.00 0.00 0.00 0.00 0.00 0.01 0.01 0.00 0.00 0.00 0.00 0.00 0.00 0.00 0.00 0.00 0.00 0.00 0.00 0.01 0.03 0.12 0.11 0.12 0.09 0.10 0.05 0.02 0.01 0.02 0.01 0.04 0.01 0.01 0.01 0.02 0.01 0.01 0.01 0.02 0.05 0.09 0.13 0.12 0.09 0.30 0.37 0.30 0.30 0.30 0.30 0.33 0.36 0.17 0.14 0.30 0.36 0.17 0.21 0.09 0.07 0.07 0.04 0.03 0.02 0.09 0.11 0.04 0.03 0.04 0.06 0.12 0.13 0.09 0.13
0.00 0.00 0.00 0.00 0.00 0.00 0.00 0.00 0.00 0.00 0.00 0.00 0.00 0.00 0.01 0.01 0.00 0.00 0.00 0.00 0.00 0.00 0.00 0.00 0.00 0.00 0.00 0.00 0.01 0.07 0.12 0.12 0.07 0.10 0.06 0.04 0.02 0.02 0.03 0.02 0.04 0.02 0.01 0.01 0.01 0.01 0.01 0.01 0.02 0.08 0.09 0.09 0.11 0.43 0.13 0.28 0.24 0.16 0.09 0.19 0.22 0.41 0.16 0.20 0.25 0.23 0.39 0.41 0.15 0.10 0.20 0.14 0.06 0.10 0.07 0.11 0.11 0.04 0.05 0.05 0.03 0.06 0.08 0.06 0.15
0.00 0.01 0.01 0.00 0.00 0.00 0.00 0.00 0.00 0.00 0.00 0.00 0.00 0.00 0.01 0.00 0.00 0.00 0.00 0.00 0.00 0.00 0.00 0.00 0.00 0.00 0.00 0.00 0.01 0.03 0.01 0.04 0.04 0.00 0.00 0.03 0.03 0.01 0.02 0.03 0.01 0.02 0.01 0.01 0.01 0.01 0.01 0.01 0.03 0.08 0.12 0.14 0.14 0.07 0.06 0.15 0.19 0.09 0.08 0.11 0.10 0.14 0.09 0.14 0.11 0.12 0.15 0.14 0.11 0.15 0.14 0.08 0.04 0.05 0.05 0.10 0.10 0.07 0.06 0.15 0.07 0.04 0.03 0.04 0.09
0.02 0.00 0.00 0.00 0.01 0.00 0.00 0.00 0.00 0.00 0.00 0.00 0.00 0.00 0.00 0.00 0.00 0.00 0.00 0.00 0.00 0.00 0.00 0.00 0.00 0.00 0.00 0.00 0.00 0.01 0.01 0.11 0.01 0.00 0.00 0.00 0.00 0.00 0.02 0.00 0.01 0.01 0.02 0.01 0.02 0.00 0.01 0.02 0.03 0.05 0.07 0.06 0.10 0.05 0.08 0.06 0.04 0.03 0.02 0.02 0.05 0.09 0.12 0.08 0.06 0.10 0.09 0.11 0.07 0.10 0.09 0.07 0.03 0.04 0.04 0.04 0.08 0.15 0.07 0.15 0.14 0.07 0.10 0.09 0.14
0.01 0.03 0.02 0.01 0.02 0.00 0.00 0.00 0.00 0.00 0.00 0.00 0.00 0.00 0.00 0.00 0.00 0.00 0.00 0.00 0.00 0.00 0.00 0.00 0.00 0.00 0.00 0.00 0.00 0.00 0.05 0.01 0.01 0.00 0.00 0.00 0.00 0.00 0.00 0.00 0.00 0.00 0.01 0.02 0.01 0.01 0.01 0.02 0.03 0.04 0.05 0.06 0.11 0.05 0.02 0.01 0.01 0.01 0.01 0.02 0.01 0.01 0.04 0.08 0.09 0.06 0.07 0.11 0.11 0.08 0.08 0.05 0.02 0.06 0.03 0.04 0.03 0.04 0.07 0.09 0.12 0.14 0.06 0.06 0.04
0.01 0.01 0.09 0.16 0.00 0.00 0.00 0.00 0.00 0.00 0.00 0.00 0.00 0.00 0.00 0.00 0.00 0.00 0.00 0.00 0.00 0.00 0.00 0.00 0.00 0.00 0.00 0.00 0.00 0.01 0.03 0.01 0.00 0.00 0.00 0.00 0.00 0.00 0.00 0.00 0.00 0.00 0.00 0.01 0.02 0.02 0.01 0.01 0.02 0.06 0.04 0.07 0.05 0.02 0.02 0.03 0.02 0.00 0.00 0.00 0.00 0.00 0.00 0.00 0.01 0.04 0.12 0.16 0.08 0.05 0.05 0.04 0.03 0.01 0.01 0.02 0.02 0.05 0.03 0.06 0.10 0.15 0.10 0.07 0.07
0.26 0.23 0.27 0.09 0.01 0.01 0.00 0.00 0.00 0.00 0.00 0.00 0.00 0.00 0.00 0.00 0.00 0.00 0.00 0.00 0.00 0.00 0.00 0.00 0.00 0.00 0.00 0.01 0.01 0.00 0.03 0.03 0.00 0.00 0.00 0.00 0.00 0.00 0.00 0.00 0.00 0.00 0.00 0.01 0.01 0.03 0.02 0.05 0.13 0.06 0.08 0.03 0.02 0.02 0.03 0.02 0.02 0.01 0.00 0.00 0.00 0.00 0.00 0.00 0.00 0.00 0.01 0.10 0.14 0.12 0.05 0.04 0.05 0.03 0.01 0.02 0.05 0.02 0.05 0.04 0.28 0.14 0.08 0.03 0.02
0.39 0.35 0.08 0.00 0.00 0.00 0.00 0.00 0.00 0.00 0.00 0.00 0.00 0.00 0.00 0.01 0.00 0.00 0.00 0.00 0.00 0.00 0.00 0.00 0.00 0.03 0.18 0.04 0.01 0.01 0.00 0.00 0.00 0.00 0.00 0.00 0.00 0.00 0.00 0.00 0.02 0.01 0.01 0.01 0.06 0.02 0.03 0.25 0.17 0.05 0.10 0.04 0.03 0.01 0.01 0.03 0.03 0.01 0.01 0.00 0.00 0.00 0.01 0.00 0.00 0.02 0.03 0.03 0.07 0.08 0.06 0.04 0.04 0.03 0.03 0.02 0.01 0.02 0.02 0.05 0.26 0.23 0.06 0.04 0.05
0.30 0.11 0.03 0.00 0.00 0.00 0.00 0.00 0.00 0.00 0.00 0.00 0.00 0.00 0.00 0.03 0.01 0.01 0.00 0.00 0.00 0.00 0.00 0.00 0.00 0.04 0.03 0.01 0.00 0.00 0.00 0.00 0.00 0.00 0.00 0.00 0.00 0.00 0.01 0.02 0.03 0.01 0.01 0.07 0.04 0.06 0.13 0.34 0.34 0.11 0.08 0.02 0.00 0.00 0.02 0.08 0.03 0.01 0.01 0.00 0.00 0.00 0.00 0.00 0.01 0.05 0.08 0.14 0.16 0.14 0.10 0.07 0.06 0.05 0.03 0.04 0.03 0.04 0.07 0.06 0.23 0.69 0.39 0.37 0.11
0.08 0.00 0.00 0.00 0.00 0.00 0.00 0.00 0.00 0.00 0.00 0.00 0.00 0.01 0.01 0.01 0.02 0.03 0.00 0.00 0.00 0.00 0.00 0.00 0.00 0.00 0.00 0.00 0.00 0.02 0.02 0.02 0.00 0.00 0.01 0.01 0.00 0.00 0.05 0.02 0.02 0.01 0.01 0.01 0.03 0.04 0.33 0.37 0.09 0.06 0.02 0.02 0.01 0.01 0.01 0.04 0.04 0.02 0.01 0.01 0.01 0.00 0.00 0.00 0.02 0.03 0.08 0.10 0.06 0.05 0.05 0.06 0.06 0.04 0.02 0.01 0.02 0.16 0.20 0.14 0.13 0.17 0.18 0.11 0.09
0.00 0.00 0.00 0.00 0.00 0.00 0.00 0.01 0.00 0.00 0.01 0.00 0.00 0.01 0.01 0.02 0.00 0.02 0.01 0.00 0.00 0.01 0.00 0.01 0.00 0.01 0.02 0.00 0.01 0.02 0.01 0.00 0.01 0.02 0.02 0.01 0.01 0.03 0.03 0.02 0.05 0.05 0.06 0.07 0.14 0.17 0.45 0.13 0.01 0.07 0.05 0.02 0.02 0.02 0.04 0.05 0.01 0.01 0.02 0.03 0.02 0.01 0.01 0.01 0.03 0.04 0.05 0.03 0.01 0.02 0.05 0.07 0.09 0.07 0.03 0.01 0.00 0.03 0.14 0.19 0.12 0.24 0.18 0.14 0.07
0.00 0.00 0.00 0.00 0.00 0.00 0.00 0.00 0.00 0.00 0.00 0.01 0.00 0.00 0.00 0.01 0.00 0.00 0.00 0.00 0.00 0.01 0.00 0.00 0.02 0.00 0.01 0.01 0.00 0.01 0.01 0.09 0.04 0.03 0.03 0.02 0.00 0.00 0.04 0.08 0.04 0.12 0.11 0.06 0.07 0.02 0.04 0.11 0.18 0.00 0.01 0.02 0.03 0.03 0.04 0.04 0.02 0.02 0.04 0.06 0.06 0.04 0.02 0.04 0.05 0.09 0.12 0.08 0.05 0.05 0.05 0.03 0.03 0.03 0.02 0.01 0.00 0.00 0.01 0.06 0.05 0.11 0.14 0.28 0.11
0.00 0.00 0.00 0.00 0.00 0.00 0.00 0.00 0.00 0.00 0.00 0.00 0.00 0.00 0.00 0.00 0.00 0.01 0.00 0.00 0.00 0.02 0.00 0.00 0.00 0.00 0.00 0.02 0.01 0.03 0.08 0.24 0.19 0.13 0.02 0.01 0.00 0.02 0.08 0.06 0.04 0.06 0.08 0.04 0.01 0.01 0.01 0.01 0.00 0.00 0.00 0.03 0.05 0.07 0.09 0.07 0.05 0.06 0.07 0.11 0.14 0.12 0.10 0.11 0.09 0.15 0.18 0.15 0.11 0.11 0.09 0.07 0.07 0.05 0.03 0.00 0.00 0.00 0.00 0.00 0.02 0.04 0.32 0.08 0.09
0.00 0.00 0.00 0.00 0.00 0.00 0.00 0.00 0.00 0.00 0.00 0.01 0.01 0.01 0.01 0.01 0.00 0.01 0.00 0.02 0.02 0.01 0.01 0.01 0.01 0.00 0.00 0.01 0.18 0.20 0.26 0.13 0.04 0.01 0.01 0.01 0.00 0.00 0.02 0.13 0.08 0.03 0.03 0.01 0.01 0.01 0.01 0.01 0.01 0.02 0.00 0.02 0.06 0.09 0.13 0.13 0.12 0.12 0.13 0.15 0.21 0.29 0.27 0.23 0.21 0.18 0.22 0.20 0.20 0.18 0.17 0.12 0.07 0.04 0.03 0.02 0.01 0.01 0.02 0.00 0.00 0.01 0.02 0.03 0.05
0.01 0.00 0.00 0.00 0.00 0.00 0.00 0.01 0.00 0.00 0.01 0.00 0.05 0.02 0.00 0.00 0.00 0.00 0.00 0.00 0.00 0.02 0.00 0.00 0.00 0.02 0.13 0.37 0.07 0.27 0.12 0.06 0.06 0.01 0.01 0.01 0.00 0.00 0.00 0.06 0.04 0.09 0.01 0.00 0.00 0.00 0.00 0.01 0.01 0.04 0.00 0.01 0.06 0.10 0.15 0.17 0.19 0.18 0.17 0.17 0.24 0.27 0.32 0.32 0.32 0.28 0.30 0.29 0.34 0.27 0.22 0.20 0.14 0.08 0.05 0.02 0.01 0.02 0.02 0.02 0.00 0.00 0.01 0.00 0.01
0.00 0.00 0.00 0.00 0.00 0.00 0.00 0.00 0.00 0.01 0.00 0.02 0.03 0.01 0.02 0.07 0.13 0.07 0.01 0.00 0.01 0.01 0.00 0.00 0.08 0.36 0.40 0.49 0.20 0.32 0.33 0.09 0.10 0.05 0.02 0.01 0.01 0.01 0.01 0.00 0.00 0.00 0.00 0.00 0.00 0.00 0.00 0.01 0.01 0.00 0.00 0.01 0.04 0.09 0.13 0.16 0.22 0.23 0.20 0.19 0.23 0.26 0.31 0.41 0.33 0.33 0.43 0.43 0.42 0.64 0.60 0.43 0.27 0.18 0.12 0.07 0.02 0.01 0.00 0.00 0.04 0.03 0.00 0.00 0.00
0.00 0.00 0.00 0.00 0.00 0.00 0.00 0.00 0.00 0.01 0.01 0.00 0.01 0.06 0.20 0.21 0.27 0.02 0.05 0.07 0.03 0.05 0.01 0.02 0.12 0.14 0.40 0.37 0.18 0.39 0.16 0.04 0.05 0.04 0.06 0.01 0.01 0.01 0.01 0.00 0.00 0.00 0.00 0.00 0.00 0.01 0.01 0.01 0.00 0.00 0.00 0.00 0.02 0.07 0.12 0.15 0.20 0.25 0.24 0.23 0.29 0.35 0.35 0.44 0.42 0.47 0.55 0.55 0.53 0.53 0.75 0.54 0.42 0.32 0.34 0.24 0.13 0.03 0.00 0.00 0.00 0.01 0.03 0.01 0.01
0.03 0.03 0.02 0.01 0.00 0.02 0.05 0.04 0.04 0.03 0.03 0.03 0.06 0.07 0.13 0.06 0.15 0.12 0.02 0.01 0.02 0.04 0.04 0.03 0.02 0.66 0.48 0.26 0.28 0.40 0.17 0.14 0.21 0.11 0.02 0.01 0.01 0.00 0.00 0.00 0.00 0.00 0.00 0.00 0.00 0.01 0.00 0.00 0.00 0.00 0.00 0.00 0.01 0.05 0.09 0.14 0.16 0.23 0.30 0.30 0.36 0.41 0.38 0.39 0.39 0.52 0.73 0.71 0.68 0.66 0.67 0.73 0.86 0.72 0.52 0.42 0.24 0.11 0.11 0.02 0.01 0.01 0.01 0.02 0.03
0.05 0.03 0.03 0.01 0.01 0.02 0.02 0.06 0.08 0.03 0.06 0.05 0.01 0.05 0.07 0.11 0.05 0.01 0.01 0.02 0.04 0.01 0.05 0.12 0.15 0.33 0.43 0.27 0.42 0.31 0.40 0.34 0.31 0.17 0.03 0.01 0.00 0.00 0.00 0.00 0.00 0.00 0.00 0.00 0.00 0.00 0.00 0.00 0.00 0.00 0.00 0.00 0.01 0.03 0.08 0.12 0.13 0.16 0.29 0.37 0.41 0.44 0.41 0.53 0.46 0.46 0.53 0.77 0.79 0.91 0.69 0.52 0.59 0.80 1.03 1.24 0.98 0.38 0.20 0.15 0.06 0.04 0.01 0.02 0.04
0.21 0.18 0.17 0.11 0.13 0.10 0.07 0.06 0.12 0.06 0.02 0.02 0.05 0.11 0.18 0.03 0.00 0.02 0.01 0.04 0.05 0.03 0.07 0.26 0.23 0.23 0.36 0.39 0.27 0.36 0.66 0.37 0.18 0.06 0.00 0.00 0.00 0.00 0.00 0.00 0.00 0.00 0.00 0.03 0.00 0.00 0.00 0.00 0.00 0.00 0.00 0.00 0.00 0.02 0.03 0.09 0.10 0.11 0.21 0.37 0.41 0.41 0.45 0.43 0.47 0.56 0.50 0.56 0.69 0.74 0.68 0.79 0.62 0.75 0.77 1.16 1.08 0.98 0.63 0.57 0.21 0.15 0.12 0.07 0.28
0.14 0.09 0.11 0.15 0.05 0.04 0.01 0.00 0.01 0.03 0.03 0.06 0.06 0.03 0.01 0.01 0.00 0.01 0.02 0.05 0.12 0.17 0.21 0.14 0.38 0.23 0.25 0.29 0.29 0.33 0.23 0.25 0.01 0.00 0.00 0.00 0.00 0.00 0.00 0.00 0.00 0.00 0.01 0.00 0.00 0.00 0.00 0.00 0.03 0.01 0.03 0.01 0.01 0.01 0.04 0.10 0.09 0.09 0.14 0.27 0.40 0.38 0.38 0.47 0.46 0.61 0.50 0.51 0.56 0.79 0.66 0.53 0.44 0.72 1.09 1.24 1.04 1.18 0.82 0.92 0.51 0.26 0.32 0.57 1.05
0.00 0.00 0.00 0.00 0.00 0.01 0.00 0.00 0.11 0.07 0.07 0.05 0.02 0.01 0.01 0.00 0.00 0.00 0.05 0.00 0.01 0.02 0.06 0.15 0.29 0.26 0.20 0.36 0.20 0.05 0.07 0.00 0.00 0.00 0.00 0.00 0.00 0.00 0.00 0.00 0.00 0.00 0.00 0.00 0.00 0.00 0.00 0.07 0.02 0.00 0.00 0.00 0.00 0.00 0.02 0.04 0.08 0.07 0.21 0.15 0.29 0.37 0.31 0.36 0.47 0.48 0.53 0.53 0.47 0.51 0.79 0.66 0.59 0.74 0.77 0.87 1.08 0.88 1.03 1.28 1.22 0.97 1.30 1.10 1.14
0.00 0.01 0.02 0.02 0.02 0.03 0.04 0.02 0.01 0.01 0.02 0.05 0.02 0.00 0.00 0.00 0.00 0.00 0.00 0.00 0.00 0.00 0.00 0.00 0.00 0.00 0.14 0.04 0.00 0.00 0.00 0.00 0.00 0.00 0.00 0.00 0.00 0.00 0.00 0.00 0.00 0.00 0.00 0.00 0.00 0.00 0.11 0.02 0.00 0.01 0.00 0.00 0.00 0.00 0.00 0.24 0.02 0.06 0.06 0.11 0.15 0.29 0.31 0.28 0.32 0.39 0.49 0.55 0.50 0.49 0.63 0.78 0.66 0.65 0.64 0.73 0.84 0.84 1.16 1.35 1.29 1.29 1.74 1.15 0.85
0.00 0.02 0.01 0.00 0.01 0.00 0.01 0.02 0.01 0.00 0.01 0.00 0.00 0.01 0.01 0.00 0.00 0.00 0.00 0.00 0.00 0.00 0.00 0.00 0.00 0.00 0.00 0.00 0.00 0.00 0.00 0.00 0.00 0.00 0.00 0.00 0.00 0.00 0.00 0.00 0.00 0.00 0.00 0.00 0.01 0.00 0.00 0.02 0.02 0.00 0.00 0.00 0.00 0.00 0.00 0.00 0.01 0.02 0.04 0.08 0.09 0.17 0.23 0.23 0.25 0.27 0.30 0.42 0.60 0.59 0.56 0.68 0.75 0.70 0.61 0.55 0.73 1.30 1.00 1.15 1.24 1.27 1.19 1.22 1.18
0.01 0.01 0.02 0.00 0.03 0.00 0.01 0.00 0.00 0.00 0.00 0.00 0.00 0.00 0.01 0.05 0.01 0.02 0.02 0.01 0.01 0.00 0.00 0.00 0.00 0.00 0.00 0.00 0.00 0.00 0.00 0.00 0.00 0.00 0.00 0.00 0.00 0.00 0.00 0.00 0.00 0.00 0.00 0.00 0.00 0.00 0.00 0.00 0.00 0.00 0.00 0.00 0.00 0.00 0.00 0.00 0.00 0.01 0.02 0.04 0.06 0.10 0.15 0.18 0.22 0.24 0.23 0.24 0.39 0.57 0.68 0.73 0.75 0.77 0.65 0.58 0.64 0.53 0.64 1.06 0.95 1.24 1.21 0.99 1.26
0.02 0.03 0.03 0.01 0.02 0.03 0.00 0.02 0.00 0.00 0.01 0.00 0.01 0.01 0.01 0.01 0.05 0.05 0.03 0.01 0.01 0.00 0.00 0.00 0.00 0.00 0.00 0.00 0.00 0.00 0.00 0.00 0.00 0.00 0.00 0.00 0.00 0.00 0.00 0.00 0.00 0.00 0.00 0.10 0.09 0.03 0.04 0.01 0.06 0.00 0.00 0.00 0.00 0.00 0.01 0.00 0.00 0.00 0.01 0.02 0.03 0.04 0.06 0.11 0.22 0.18 0.20 0.19 0.20 0.34 0.49 0.62 0.70 0.73 0.80 0.72 0.49 0.45 0.40 0.57 0.67 0.83 1.03 0.92 0.85
0.00 0.00 0.01 0.01 0.02 0.01 0.00 0.01 0.01 0.00 0.00 0.01 0.02 0.01 0.02 0.02 0.02 0.04 0.03 0.03 0.02 0.01 0.00 0.00 0.00 0.00 0.00 0.00 0.00 0.00 0.00 0.00 0.00 0.00 0.00 0.00 0.00 0.00 0.00 0.01 0.00 0.00 0.00 0.00 0.00 0.09 0.02 0.01 0.01 0.00 0.00 0.00 0.00 0.00 0.02 0.01 0.00 0.00 0.01 0.01 0.01 0.03 0.04 0.04 0.07 0.10 0.13 0.17 0.16 0.17 0.26 0.38 0.50 0.59 0.63 0.74 0.74 0.58 0.43 0.39 0.50 0.62 0.91 0.87 0.89
0.00 0.00 0.00 0.00 0.00 0.00 0.00 0.00 0.00 0.01 0.01 0.01 0.02 0.01 0.02 0.05 0.15 0.03 0.03 0.03 0.06 0.04 0.01 0.01 0.01 0.00 0.00 0.00 0.00 0.00 0.00 0.00 0.00 0.00 0.00 0.00 0.00 0.00 0.00 0.01 0.01 0.00 0.00 0.01 0.00 0.00 0.01 0.00 0.00 0.00 0.00 0.00 0.00 0.01 0.00 0.00 0.00 0.00 0.01 0.02 0.00 0.02 0.03 0.03 0.03 0.05 0.07 0.08 0.11 0.16 0.15 0.20 0.28 0.38 0.49 0.52 0.59 0.66 0.65 0.60 0.43 0.43 0.59 0.76 0.61
0.00 0.00 0.00 0.00 0.00 0.00 0.00 0.00 0.01 0.01 0.04 0.02 0.01 0.01 0.01 0.01 0.01 0.04 0.07 0.17 0.14 0.09 0.06 0.06 0.02 0.01 0.00 0.00 0.00 0.00 0.00 0.00 0.00 0.00 0.00 0.00 0.00 0.00 0.01 0.01 0.00 0.00 0.00 0.00 0.00 0.00 0.00 0.00 0.00 0.00 0.00 0.00 0.00 0.00 0.00 0.00 0.00 0.00 0.00 0.00 0.00 0.01 0.02 0.04 0.03 0.03 0.04 0.04 0.06 0.07 0.09 0.13 0.16 0.21 0.28 0.34 0.44 0.49 0.53 0.59 0.58 0.48 0.42 0.53 0.76
0.01 0.01 0.03 0.05 0.01 0.02 0.02 0.00 0.01 0.01 0.00 0.00 0.01 0.03 0.02 0.01 0.02 0.06 0.04 0.05 0.04 0.08 0.07 0.04 0.03 0.01 0.01 0.01 0.00 0.00 0.00 0.00 0.00 0.00 0.00 0.00 0.00 0.00 0.00 0.00 0.00 0.00 0.00 0.00 0.00 0.00 0.00 0.00 0.00 0.00 0.00 0.00 0.00 0.00 0.00 0.00 0.00 0.00 0.00 0.00 0.00 0.00 0.00 0.01 0.01 0.03 0.05 0.03 0.03 0.03 0.05 0.05 0.06 0.14 0.14 0.19 0.27 0.34 0.36 0.40 0.43 0.42 0.43 0.47 0.55
0.01 0.05 0.07 0.06 0.03 0.03 0.09 0.10 0.01 0.00 0.00 0.01 0.01 0.02 0.02 0.02 0.01 0.02 0.04 0.06 0.04 0.02 0.02 0.00 0.00 0.00 0.01 0.01 0.01 0.01 0.00 0.00 0.00 0.00 0.00 0.00 0.00 0.00 0.00 0.00 0.00 0.00 0.00 0.00 0.00 0.00 0.00 0.00 0.00 0.00 0.00 0.00 0.00 0.00 0.00 0.00 0.00 0.00 0.00 0.00 0.00 0.00 0.00 0.00 0.00 0.01 0.01 0.04 0.02 0.02 0.02 0.02 0.03 0.03 0.08 0.12 0.13 0.19 0.25 0.27 0.29 0.33 0.34 0.31 0.39
0.04 0.00 0.00 0.00 0.02 0.04 0.13 0.02 0.00 0.01 0.01 0.02 0.03 0.02 0.00 0.00 0.00 0.01 0.02 0.02 0.03 0.03 0.02 0.01 0.01 0.00 0.00 0.00 0.00 0.00 0.00 0.00 0.00 0.00 0.00 0.00 0.00 0.00 0.00 0.00 0.00 0.00 0.00 0.00 0.00 0.00 0.00 0.00 0.00 0.00 0.00 0.00 0.00 0.00 0.00 0.00 0.00 0.00 0.00 0.00 0.00 0.00 0.00 0.00 0.00 0.00 0.00 0.00 0.01 0.02 0.01 0.01 0.01 0.01 0.02 0.03 0.04 0.09 0.21 0.20 0.20 0.22 0.25 0.27 0.27
0.13 0.08 0.01 0.00 0.01 0.01 0.01 0.14 0.01 0.03 0.07 0.05 0.03 0.00 0.00 0.00 0.00 0.00 0.01 0.01 0.01 0.00 0.00 0.00 0.00 0.00 0.00 0.00 0.00 0.00 0.00 0.00 0.00 0.00 0.00 0.00 0.00 0.00 0.00 0.00 0.00 0.00 0.00 0.00 0.00 0.00 0.00 0.00 0.00 0.00 0.00 0.00 0.00 0.00 0.00 0.00 0.00 0.00 0.00 0.00 0.00 0.00 0.00 0.00 0.00 0.00 0.00 0.00 0.00 0.01 0.02 0.01 0.01 0.00 0.03 0.07 0.02 0.02 0.10 0.09 0.10 0.13 0.14 0.16 0.20
0.05 0.03 0.00 0.00 0.00 0.02 0.02 0.03 0.03 0.02 0.02 0.02 0.01 0.04 0.02 0.03 0.06 0.05 0.03 0.01 0.01 0.01 0.02 0.00 0.00 0.01 0.00 0.01 0.02 0.00 0.00 0.00 0.00 0.00 0.00 0.00 0.00 0.00 0.00 0.00 0.00 0.00 0.00 0.00 0.00 0.00 0.00 0.00 0.00 0.00 0.00 0.00 0.00 0.00 0.00 0.00 0.00 0.00 0.00 0.00 0.00 0.00 0.00 0.00 0.00 0.00 0.00 0.00 0.00 0.00 0.00 0.00 0.01 0.00 0.00 0.00 0.01 0.04 0.03 0.04 0.02 0.04 0.06 0.06 0.07
0.02 0.01 0.01 0.01 0.00 0.02 0.03 0.03 0.03 0.05 0.16 0.29 0.06 0.02 0.01 0.01 0.02 0.12 0.12 0.02 0.03 0.15 0.03 0.01 0.04 0.02 0.00 0.00 0.00 0.00 0.00 0.00 0.00 0.00 0.00 0.00 0.00 0.00 0.00 0.00 0.00 0.00 0.00 0.00 0.00 0.00 0.00 0.00 0.00 0.00 0.00 0.00 0.00 0.00 0.00 0.00 0.00 0.00 0.00 0.00 0.00 0.00 0.00 0.00 0.00 0.00 0.00 0.00 0.00 0.00 0.00 0.00 0.00 0.00 0.00 0.00 0.00 0.00 0.00 0.00 0.00 0.02 0.05 0.03 0.03
0.00 0.01 0.02 0.02 0.02 0.02 0.03 0.04 0.03 0.02 0.05 0.09 0.13 0.12 0.15 0.11 0.02 0.04 0.00 0.01 0.01 0.00 0.00 0.01 0.00 0.00 0.00 0.00 0.00 0.00 0.00 0.00 0.00 0.00 0.00 0.00 0.00 0.00 0.00 0.00 0.00 0.00 0.00 0.00 0.00 0.00 0.00 0.00 0.00 0.00 0.00 0.00 0.00 0.00 0.00 0.00 0.00 0.00 0.00 0.00 0.00 0.00 0.00 0.00 0.00 0.00 0.00 0.00 0.00 0.00 0.00 0.00 0.00 0.00 0.00 0.00 0.00 0.00 0.00 0.00 0.00 0.02 0.08 0.00 0.00
0.01 0.02 0.01 0.01 0.00 0.01 0.01 0.03 0.10 0.07 0.09 0.13 0.09 0.08 0.01 0.00 0.00 0.01 0.01 0.00 0.00 0.00 0.00 0.00 0.00 0.01 0.01 0.00 0.00 0.00 0.00 0.00 0.00 0.00 0.00 0.00 0.00 0.00 0.00 0.00 0.00 0.00 0.00 0.00 0.00 0.00 0.00 0.00 0.00 0.00 0.00 0.00 0.00 0.00 0.00 0.00 0.00 0.00 0.00 0.00 0.00 0.00 0.00 0.00 0.00 0.00 0.00 0.00 0.00 0.00 0.00 0.00 0.00 0.00 0.00 0.00 0.00 0.00 0.00 0.00 0.00 0.00 0.00 0.04 0.01
0.00 0.00 0.00 0.01 0.01 0.01 0.00 0.00 0.05 0.01 0.02 0.00 0.00 0.00 0.00 0.00 0.02 0.00 0.01 0.00 0.00 0.00 0.00 0.00 0.00 0.01 0.00 0.00 0.01 0.01 0.00 0.00 0.00 0.00 0.00 0.00 0.00 0.00 0.00 0.00 0.00 0.00 0.00 0.00 0.00 0.00 0.00 0.00 0.00 0.00 0.00 0.00 0.00 0.00 0.00 0.00 0.00 0.00 0.00 0.00 0.00 0.00 0.00 0.00 0.00 0.00 0.00 0.00 0.00 0.00 0.00 0.00 0.00 0.00 0.00 0.00 0.00 0.00 0.00 0.00 0.00 0.00 0.00 0.00 0.00
0.02 0.02 0.03 0.06 0.02 0.02 0.00 0.00 0.00 0.00 0.00 0.00 0.00 0.00 0.00 0.00 0.00 0.00 0.00 0.00 0.00 0.02 0.00 0.00 0.00 0.00 0.01 0.00 0.00 0.00 0.00 0.00 0.00 0.00 0.00 0.00 0.00 0.00 0.00 0.00 0.00 0.00 0.00 0.00 0.00 0.00 0.00 0.00 0.00 0.00 0.00 0.00 0.00 0.00 0.00 0.00 0.00 0.00 0.00 0.00 0.00 0.00 0.00 0.00 0.00 0.00 0.00 0.00 0.00 0.00 0.00 0.00 0.00 0.00 0.00 0.00 0.00 0.00 0.00 0.00 0.00 0.00 0.00 0.00 0.00
0.00 0.00 0.00 0.00 0.00 0.00 0.00 0.00 0.00 0.00 0.01 0.00 0.00 0.00 0.00 0.00 0.00 0.00 0.00 0.01 0.00 0.00 0.00 0.00 0.00 0.00 0.00 0.00 0.00 0.00 0.00 0.00 0.00 0.00 0.00 0.00 0.00 0.00 0.00 0.00 0.00 0.00 0.00 0.00 0.00 0.00 0.00 0.00 0.00 0.00 0.00 0.00 0.00 0.00 0.00 0.00 0.00 0.00 0.00 0.00 0.00 0.00 0.00 0.00 0.00 0.00 0.00 0.00 0.00 0.00 0.00 0.00 0.00 0.00 0.00 0.00 0.00 0.00 0.00 0.00 0.00 0.00 0.00 0.00 0.00
0.00 0.00 0.00 0.00 0.00 0.00 0.00 0.00 0.00 0.00 0.00 0.00 0.00 0.06 0.00 0.00 0.00 0.00 0.00 0.00 0.00 0.00 0.00 0.00 0.00 0.00 0.00 0.00 0.00 0.00 0.00 0.00 0.00 0.00 0.00 0.00 0.00 0.00 0.00 0.00 0.00 0.00 0.00 0.00 0.00 0.00 0.00 0.00 0.00 0.00 0.00 0.00 0.00 0.00 0.00 0.00 0.00 0.00 0.00 0.00 0.00 0.00 0.00 0.00 0.00 0.00 0.00 0.00 0.00 0.00 0.00 0.00 0.00 0.00 0.00 0.00 0.00 0.00 0.00 0.00 0.00 0.00 0.00 0.00 0.00
0.00 0.00 0.00 0.00 0.00 0.00 0.00 0.00 0.00 0.00 0.00 0.00 0.00 0.00 0.00 0.00 0.00 0.00 0.00 0.00 0.00 0.00 0.00 0.00 0.00 0.00 0.00 0.00 0.00 0.00 0.00 0.00 0.00 0.00 0.00 0.00 0.00 0.00 0.00 0.00 0.00 0.00 0.00 0.00 0.00 0.00 0.00 0.00 0.00 0.00 0.00 0.00 0.00 0.00 0.00 0.00 0.00 0.00 0.00 0.00 0.00 0.00 0.00 0.00 0.00 0.00 0.00 0.00 0.00 0.00 0.00 0.00 0.00 0.00 0.00 0.00 0.00 0.00 0.00 0.00 0.00 0.00 0.00 0.00 0.00
0.00 0.00 0.00 0.00 0.00 0.00 0.00 0.00 0.00 0.00 0.00 0.00 0.00 0.00 0.00 0.00 0.00 0.00 0.00 0.00 0.00 0.00 0.00 0.00 0.00 0.00 0.00 0.00 0.00 0.00 0.00 0.00 0.00 0.00 0.00 0.00 0.00 0.00 0.00 0.00 0.00 0.00 0.00 0.00 0.00 0.00 0.00 0.00 0.00 0.00 0.00 0.00 0.00 0.00 0.00 0.00 0.00 0.00 0.00 0.00 0.00 0.00 0.00 0.00 0.00 0.00 0.00 0.00 0.00 0.00 0.00 0.00 0.00 0.00 0.00 0.00 0.00 0.00 0.00 0.00 0.00 0.00 0.00 0.00 0.00
0.00 0.00 0.00 0.00 0.00 0.00 0.00 0.00 0.00 0.00 0.00 0.00 0.00 0.00 0.00 0.00 0.00 0.00 0.00 0.00 0.00 0.00 0.00 0.00 0.00 0.00 0.00 0.00 0.00 0.00 0.00 0.00 0.00 0.00 0.00 0.00 0.00 0.00 0.00 0.00 0.00 0.00 0.00 0.00 0.00 0.00 0.00 0.00 0.00 0.00 0.00 0.00 0.00 0.00 0.00 0.00 0.00 0.00 0.00 0.00 0.00 0.00 0.00 0.00 0.00 0.00 0.00 0.00 0.00 0.00 0.00 0.00 0.00 0.00 0.00 0.00 0.00 0.00 0.00 0.00 0.00 0.00 0.00 0.00 0.00